EW9044 Weather Reports


time (UTC)temp
C
wind
direction
speed
KPH
gust
KPH
rain 1hr
cm
rain 24hr
cm
rain mn
cm
humidity
%
barometer
mb
20260504081504 14 0.0 0.0 0.00 0.00 0.00 45 995.1
20260504044541 15 0.0 0.0 0.00 0.00 0.00 40 998.8
20260504043035 15 0.0 0.0 0.00 0.00 0.00 41 999.1
20260504041529 15 0.0 0.0 0.00 0.00 0.00 41 999.4
20260504040029 15 0.0 0.0 0.00 0.00 0.00 42 999.7
20260504034533 15 0.0 0.0 0.00 0.00 0.00 42 1000.0
20260504033032 15 0.0 0.0 0.00 0.00 0.00 40 1000.2
20260504031523 15 0.0 0.0 0.00 0.00 0.00 40 1000.3
20260504030023 15 0.0 0.0 0.00 0.00 0.00 38 1000.5
20260504024522 15 0.0 0.0 0.00 0.00 0.00 38 1000.7
20260504023019 16 0.0 0.0 0.00 0.00 0.00 39 1000.7
20260504021525 16 0.0 0.0 0.00 0.00 0.00 38 1000.7
20260504020021 17 0.0 0.0 0.00 0.00 0.00 37 1000.7
20260504014519 17 0.0 0.0 0.00 0.00 0.00 35 1000.9
20260504013022 18 0.0 0.0 0.00 0.00 0.00 32 1001.0
20260504011515 19 0.0 0.0 0.00 0.00 0.00 30 1001.1
20260504010015 20 0.0 0.0 0.00 0.00 0.00 29 1001.0
20260504004515 20 0.0 0.0 0.00 0.00 0.00 26 1001.2
20260504003011 20 0.0 0.0 0.00 0.00 0.00 27 1001.1
20260504001511 21 0.0 0.0 0.00 0.00 0.00 27 1001.2
20260504000010 21 0.0 0.0 0.00 0.00 0.00 27 1001.3
20260503234509 22 0.0 0.0 0.00 0.00 0.00 27 1001.2
20260503233008 22 0.0 0.0 0.00 0.00 0.00 26 1001.2
20260503231509 22 0.0 0.0 0.00 0.00 0.00 26 1001.7
20260503230009 22 0.0 0.0 0.00 0.00 0.00 24 1001.7
20260503224506 22 0.0 0.0 0.00 0.00 0.00 24 1001.8
20260503223005 23 0.0 0.0 0.00 0.00 0.00 24 1002.0
20260503221505 23 0.0 0.0 0.00 0.00 0.00 24 1001.9
20260503220006 23 0.0 0.0 0.00 0.00 0.00 25 1001.9
20260503214502 23 0.0 0.0 0.00 0.00 0.00 25 1001.9
20260503213002 23 0.0 0.0 0.00 0.00 0.00 25 1002.1
20260503211610 23 0.0 0.0 0.00 0.00 0.00 26 1002.1
20260503210059 23 0.0 0.0 0.00 0.00 0.00 24 1002.3
20260503204602 23 0.0 0.0 0.00 0.00 0.00 26 1002.5
20260503203055 23 0.0 0.0 0.00 0.00 0.00 26 1002.6
20260503201553 22 0.0 0.0 0.00 0.00 0.00 28 1002.8
20260503200051 22 0.0 0.0 0.00 0.00 0.00 28 1002.9
20260503194550 22 0.0 0.0 0.00 0.00 0.00 29 1003.2
20260503193050 22 0.0 0.0 0.00 0.00 0.00 29 1003.2
20260503191545 22 0.0 0.0 0.00 0.00 0.00 31 1003.3
20260503190047 21 0.0 0.0 0.00 0.00 0.00 31 1003.3
20260503184541 21 0.0 0.0 0.00 0.00 0.00 33 1003.3
20260503183042 21 0.0 0.0 0.00 0.00 0.00 32 1003.5
20260503181613 21 0.0 0.0 0.00 0.00 0.00 34 1003.5
20260503180042 21 0.0 0.0 0.00 0.00 0.00 34 1003.7
20260503174537 21 0.0 0.0 0.00 0.00 0.00 37 1003.8
20260503173045 20 0.0 0.0 0.00 0.00 0.00 37 1003.9
20260503171531 20 0.0 0.0 0.00 0.00 0.00 39 1003.9
20260503120108 11 0.0 0.0 0.00 0.00 0.00 53 1001.9